This demonstration page uses our WeatherBlox Daily Observations layout. Learn more.

Left ArrowRight Arrow

39.08367, -84.50855

Hourly Observations for April 18, 2019

Temp ( °F °C ) Dew Point ( °F °C ) Humidity (%) Winds ( mph kmh ) Pressure ( in mb ) Visibility ( mi km ) Precip ( " mm )
12:53 am 00:53 Partly Cloudy 65 18.3 49 9.4 56 56 SSW 10 17 29.8 1009 10 16.0934 0 0
1:53 am 01:53 Mostly Cloudy 65 18.3 49 9.4 56 56 S 9 15 29.78 1008 10 16.0934 0 0
2:53 am 02:53 Partly Cloudy 63 17.2 49 9.4 60 60 SSW 8 13 29.77 1008 10 16.0934 0 0
3:53 am 03:53 Cloudy 69 20.6 48 8.9 47 47 SSW 13 20 29.76 1008 10 16.0934 0 0
4:53 am 04:53 Mostly Cloudy 67 19.4 48 8.9 51 51 SSW 12 19 29.76 1008 10 16.0934 0 0
5:53 am 05:53 Cloudy 68 20 49 9.4 51 51 SSW 12 19 29.75 1008 10 16.0934 0 0
6:53 am 06:53 Partly Cloudy 68 20 50 10 53 53 SSW 15 24 29.77 1008 10 16.0934 0 0
7:53 am 07:53 Mostly Sunny 67 19.4 52 11.1 59 59 SSW 14 22 29.78 1008 10 16.0934 0 0
8:53 am 08:53 Sunny 67 19.4 53 11.7 61 61 S 12 19 29.77 1008 10 16.0934 0 0
9:53 am 09:53 Cloudy with Light Rain 68 20 54 12.2 61 61 SSW 14 22 29.79 1009 10 16.0934 0 0.0254
10:53 am 10:53 Partly Cloudy 71 21.7 56 13.3 59 59 S 16 26 29.78 1008 10 16.0934 0 0.0254
11:53 am 11:53 Mostly Sunny 72 22.2 56 13.3 57 57 SSW 20 31 29.75 1008 10 16.0934 0 0
12:53 pm 12:53 Mostly Sunny 75 23.9 57 13.9 54 54 SSW 21 33 29.73 1007 10 16.0934 0 0
1:53 pm 13:53 Mostly Cloudy 74 23.3 56 13.3 54 54 SSW 20 31 29.7 1006 10 16.0934 0 0
2:53 pm 14:53 Partly Cloudy 75 23.9 56 13.3 52 52 SW 21 33 29.7 1006 10 16.0934 0 0
3:53 pm 15:53 Sunny 77 25 53 11.7 43 43 S 23 37 29.65 1004 10 16.0934 0 0
4:53 pm 16:53 Sunny 78 25.6 53 11.7 42 42 SSW 20 31 29.62 1003 10 16.0934 0 0
5:53 pm 17:53 Mostly Cloudy 77 25 52 11.1 42 42 SSW 14 22 29.61 1003 10 16.0934 0 0
6:53 pm 18:53 Partly Cloudy 76 24.4 54 12.2 47 47 SW 9 15 29.59 1002 10 16.0934 0 0
7:53 pm 19:53 Mostly Cloudy 71 21.7 56 13.3 59 59 SSW 6 9 29.59 1002 10 16.0934 0 0
8:53 pm 20:53 Mostly Cloudy 71 21.7 54 12.2 55 55 SSW 5 7 29.58 1002 10 16.0934 0 0
9:53 pm 21:53 Cloudy 69 20.6 54 12.2 59 59 W 8 13 29.61 1003 10 16.0934 0 0
10:19 pm 22:19 Cloudy 67 19.4 59 15 76 76 NW 13 20 29.62 1003 10 16.0934 0 0
10:53 pm 22:53 Mostly Cloudy 66 18.9 58 14.4 75 75 VRB 3 6 29.62 1003 10 16.0934 0 0
11:53 pm 23:53 Partly Cloudy 64 17.8 58 14.4 81 81 N 9 15 29.59 1002 10 16.0934 0 0

Powered by AerisWeather